Date String (YYYY-MM-DD hh:mm:ss) UTC,Instrument flags,absolute air pressure of the measurement (hPa),sample flow rate (lpm),inlet stack bypass flow (lpm),air temperature of the measurement (°C),ambient temperature measured by the external sensor (°C),aerosol sample conditioner tube jacket temperature (°C),OPC LED temperature (°C),internal box temperature (°C),relative humidity of the measurement (%),span deviation,mass concentration of particles derived from Lorenz-Mie calculation of OPC scattering (μg/m³),mass concentration of particles derived from Lorenz-Mie calculation of OPC scattering (μg/m³),mass concentration of particles derived from Lorenz-Mie calculation of OPC scattering (μg/m³)
DateTimeUTC,F1_M11,P_M11,Q1_M11,Q2_M11,T1_M11,T2_M11,T3_M11,T4_M11,T5_M11,U1_M11,ZSPAN_M11,X2_M11,X0_M11,X1_M11
2024-03-10 07:00:00,SystemResetWarning,0828.6,5.01,000.00,018.6,017.8,000.0,027.0,020.1,08.9,0000.0,0001.97,0006.27,0001.15
2024-03-10 07:01:00,SystemResetWarning,0828.6,4.98,000.00,018.5,017.7,000.0,027.0,020.1,09.4,0000.0,0001.90,0005.75,0001.14
2024-03-10 07:02:00,SystemResetWarning,0828.6,5.00,000.00,018.5,017.5,000.0,027.0,020.0,09.4,0000.0,0001.95,0005.61,0001.15
2024-03-10 07:03:00,SystemResetWarning,0828.6,5.01,000.00,018.4,017.4,000.0,027.0,020.0,09.0,0000.0,0001.96,0005.20,0001.15
2024-03-10 07:04:00,SystemResetWarning,0828.6,5.01,000.00,018.4,017.4,000.0,027.0,020.0,09.1,0000.0,0001.98,0004.30,0001.16
2024-03-10 07:05:00,SystemResetWarning,0828.6,4.99,000.00,018.4,017.3,000.0,027.0,020.0,09.1,0000.0,0002.02,0004.31,0001.16
2024-03-10 07:06:00,SystemResetWarning,0828.6,5.00,000.00,018.4,017.2,000.0,027.0,020.0,09.1,0000.0,0002.05,0004.23,0001.17
2024-03-10 07:07:00,SystemResetWarning,0828.6,5.00,000.00,018.3,017.2,000.0,027.0,020.0,08.9,0000.0,0002.10,0004.54,0001.17
2024-03-10 07:08:00,SystemResetWarning,0828.6,4.99,000.00,018.3,017.2,000.0,027.0,020.0,08.8,0000.0,0002.15,0004.81,0001.18
2024-03-10 07:09:00,SystemResetWarning,0828.6,5.00,000.00,018.3,017.2,000.0,027.0,020.0,08.7,0000.0,0002.24,0005.02,0001.18
2024-03-10 07:10:00,SystemResetWarning,0828.6,5.01,000.00,018.3,017.2,000.0,027.0,020.0,08.7,0000.0,0002.28,0005.19,0001.19
2024-03-10 07:11:00,SystemResetWarning,0828.6,5.00,000.00,018.3,017.1,000.0,027.0,020.0,08.5,0000.0,0002.24,0005.18,0001.19
2024-03-10 07:12:00,SystemResetWarning,0828.6,5.01,000.00,018.3,017.1,000.0,027.0,020.0,08.3,0000.0,0002.23,0005.17,0001.19
2024-03-10 07:13:00,SystemResetWarning,0828.6,4.99,000.00,018.3,017.1,000.0,027.0,020.0,08.1,0000.0,0002.24,0005.44,0001.19
2024-03-10 07:14:00,SystemResetWarning,0828.6,5.00,000.00,018.3,017.0,000.0,027.0,020.0,08.1,0000.0,0002.36,0005.94,0001.19
2024-03-10 07:15:00,SystemResetWarning,0828.6,4.99,000.00,018.3,017.0,000.0,027.0,020.0,08.1,0000.0,0002.44,0006.05,0001.19
2024-03-10 07:16:00,SystemResetWarning,0828.6,5.00,000.00,018.2,017.0,000.0,027.0,020.0,08.1,0000.0,0002.41,0005.94,0001.19
2024-03-10 07:17:00,SystemResetWarning,0828.6,5.01,000.00,018.2,017.0,000.0,027.0,020.0,08.0,0000.0,0002.45,0006.18,0001.19
2024-03-10 07:18:00,SystemResetWarning,0828.6,5.01,000.00,018.2,017.0,000.0,027.0,020.0,07.9,0000.0,0002.46,0006.37,0001.18
2024-03-10 07:19:00,SystemResetWarning,0828.6,4.99,000.00,018.2,017.0,000.0,027.0,020.0,07.9,0000.0,0002.40,0005.93,0001.18
2024-03-10 07:20:00,SystemResetWarning,0828.6,4.99,000.00,018.2,017.0,000.0,027.0,020.0,07.9,0000.0,0002.28,0005.56,0001.18
2024-03-10 07:21:00,SystemResetWarning,0828.6,5.00,000.00,018.2,017.0,000.0,027.0,020.0,08.0,0000.0,0002.30,0005.82,0001.18
2024-03-10 07:22:00,SystemResetWarning,0828.6,5.00,000.00,018.2,017.3,000.0,027.1,020.1,08.0,0000.0,0002.35,0005.83,0001.19
2024-03-10 07:23:00,SystemResetWarning,0828.6,5.02,000.00,018.4,018.2,000.0,027.1,020.5,08.0,0000.0,0002.41,0006.25,0001.19
2024-03-10 07:24:00,SystemResetWarning,0828.6,4.98,000.00,018.6,018.7,000.0,027.1,020.8,07.8,0000.0,0002.37,0006.09,0001.19
2024-03-10 07:25:00,SystemResetWarning,0828.6,5.00,000.00,018.7,018.6,000.0,027.1,020.7,07.7,0000.0,0002.32,0005.84,0001.18
2024-03-10 07:26:00,SystemResetWarning,0828.6,5.01,000.00,018.6,018.4,000.0,027.0,020.4,07.8,0000.0,0002.32,0005.82,0001.18
2024-03-10 07:27:00,SystemResetWarning,0828.6,5.00,000.00,018.6,018.2,000.0,027.0,020.3,07.8,0000.0,0002.34,0006.16,0001.17
2024-03-10 07:28:00,SystemResetWarning,0828.6,5.00,000.00,018.5,018.0,000.0,027.0,020.2,07.8,0000.0,0002.33,0006.36,0001.17
2024-03-10 07:29:00,SystemResetWarning,0828.6,5.00,000.00,018.5,017.8,000.0,027.0,020.1,07.9,0000.0,0002.32,0006.06,0001.18
2024-03-10 07:30:00,SystemResetWarning,0828.6,4.99,000.00,018.4,017.6,000.0,027.0,020.0,07.9,0000.0,0002.31,0005.97,0001.17
2024-03-10 07:31:00,SystemResetWarning,0828.6,5.00,000.00,018.4,017.5,000.0,027.0,020.0,07.9,0000.0,0002.29,0005.90,0001.16
2024-03-10 07:32:00,SystemResetWarning,0828.6,5.01,000.00,018.4,017.4,000.0,027.0,020.0,07.9,0000.0,0002.25,0005.62,0001.16
2024-03-10 07:33:00,SystemResetWarning,0828.6,5.01,000.00,018.4,017.4,000.0,027.0,020.0,07.9,0000.0,0002.27,0005.50,0001.17
2024-03-10 07:34:00,SystemResetWarning,0828.6,4.98,000.00,018.3,017.3,000.0,027.0,020.0,07.9,0000.0,0002.26,0005.20,0001.17
2024-03-10 07:35:00,SystemResetWarning,0828.6,5.00,000.00,018.3,017.3,000.0,027.0,020.0,07.9,0000.0,0002.24,0005.01,0001.17
2024-03-10 07:36:00,SystemResetWarning,0828.6,5.00,000.00,018.3,017.3,000.0,027.0,020.0,07.9,0000.0,0002.26,0004.89,0001.18
2024-03-10 07:37:00,SystemResetWarning,0828.6,4.99,000.00,018.3,017.2,000.0,027.0,020.0,07.9,0000.0,0002.20,0004.82,0001.18
2024-03-10 07:38:00,SystemResetWarning,0828.6,5.01,000.00,018.3,017.2,000.0,027.0,020.0,07.9,0000.0,0002.14,0005.02,0001.17
2024-03-10 07:39:00,SystemResetWarning,0828.6,5.00,000.00,018.3,017.2,000.0,027.0,020.0,07.8,0000.0,0002.15,0004.70,0001.17
2024-03-10 07:40:00,SystemResetWarning,0828.6,5.01,000.00,018.3,017.2,000.0,027.0,020.0,07.6,0000.0,0002.17,0005.07,0001.17
2024-03-10 07:41:00,SystemResetWarning,0828.5,4.99,000.00,018.3,017.2,000.0,027.0,020.0,07.6,0000.0,0002.19,0005.22,0001.17
2024-03-10 07:42:00,SystemResetWarning,0828.6,5.00,000.00,018.3,017.1,000.0,027.0,020.0,07.6,0000.0,0002.17,0005.20,0001.18
2024-03-10 07:43:00,SystemResetWarning,0828.6,5.00,000.00,018.3,017.2,000.0,027.0,020.0,07.7,0000.0,0002.18,0005.39,0001.18
2024-03-10 07:44:00,SystemResetWarning,0828.6,5.00,000.00,018.3,017.1,000.0,027.0,020.0,07.8,0000.0,0002.25,0005.79,0001.18
2024-03-10 07:45:00,SystemResetWarning,0828.6,5.00,000.00,018.3,017.1,000.0,027.0,020.0,07.8,0000.0,0002.34,0006.24,0001.18
2024-03-10 07:46:00,SystemResetWarning,0828.6,5.00,000.00,018.3,017.1,000.0,027.0,020.0,07.9,0000.0,0002.37,0006.40,0001.19
2024-03-10 07:47:00,SystemResetWarning,0828.6,5.00,000.00,018.3,017.1,000.0,027.0,020.0,07.6,0000.0,0002.38,0006.48,0001.19
2024-03-10 07:48:00,SystemResetWarning,0828.6,5.00,000.00,018.2,017.1,000.0,027.0,020.0,07.6,0000.0,0002.42,0006.48,0001.19
2024-03-10 07:49:00,SystemResetWarning,0828.6,5.00,000.00,018.2,017.1,000.0,027.0,020.0,07.7,0000.0,0002.41,0006.10,0001.19
2024-03-10 07:50:00,SystemResetWarning,0828.6,5.00,000.00,018.2,017.1,000.0,027.0,020.0,07.8,0000.0,0002.39,0005.97,0001.19
2024-03-10 07:51:00,SystemResetWarning,0828.6,5.00,000.00,018.2,017.1,000.0,027.0,020.0,07.8,0000.0,0002.38,0006.83,0001.19
2024-03-10 07:52:00,SystemResetWarning,0828.6,5.00,000.00,018.2,017.2,000.0,027.0,020.0,07.7,0000.0,0002.44,0007.52,0001.20
2024-03-10 07:53:00,SystemResetWarning,0828.6,5.02,000.00,018.3,017.9,000.0,027.1,020.4,07.6,0000.0,0002.57,0007.66,0001.21
2024-03-10 07:54:00,SystemResetWarning,0828.6,4.99,000.00,018.6,018.8,000.0,027.1,020.9,07.6,0000.0,0002.60,0007.60,0001.22
2024-03-10 07:55:00,SystemResetWarning,0828.6,4.99,000.00,018.7,018.8,000.0,027.1,020.8,07.6,0000.0,0002.48,0007.39,0001.20
2024-03-10 07:56:00,SystemResetWarning,0828.6,5.00,000.00,018.7,018.6,000.0,027.0,020.6,07.7,0000.0,0002.33,0007.64,0001.21
2024-03-10 07:57:00,SystemResetWarning,0828.6,5.01,000.00,018.7,018.4,000.0,027.0,020.4,07.6,0000.0,0002.28,0007.61,0001.21
2024-03-10 07:58:00,SystemResetWarning,0828.6,5.00,000.00,018.6,018.2,000.0,027.0,020.3,07.4,0000.0,0002.27,0007.63,0001.21
2024-03-10 07:59:00,SystemResetWarning,0828.5,5.00,000.00,018.6,018.0,000.0,027.0,020.2,07.3,0000.0,0002.22,0007.54,0001.21
